DECAYED

OBJECT A, 55248 (Decayed)

Orbit data source: Space-Track

You're viewing an Uncataloged Satellite

Recently launched and/or uncataloged satellites may have evolving metadata. Metadata may include but not limited to: Owner, Maufacturer, Bus, Motor, and Mission.

OBJECT A, 55248 was a Chinese satellite in LEO that was launched on Sun, 15 Jan 2023 UTC via a CHANG ZHENG 2D launch vehicle from the Taiyaun Space Center, China (TSC). Unknown objects in Earth's orbit typically refer to objects detected orbiting the Earth but have not yet been identified or cataloged. These objects could be anything from previously untracked satellites, spent rocket stages, debris from satellite collisions, or even natural meteoroids temporarily captured by Earth's gravity. This object's orbit decayed before it could be identified.

Not visible in the next 10 days
Identifier
55248, 2023-007A
Orbit
Decayed
Country
Flag of CNCN / PRC
Related business
None
Manufacturer
Unknown
Mission
Decayed Civil Imaging
Bus & Motor
Unknown
Mass
Unknown
Launch date (UTC)
2023-01-15 (3 years ago)
Launch vehicle
CHANG ZHENG 2D
Launch site
Taiyaun Space Center, China (TSC)
Object type
Unknown
Shape & HBR
Box, 1.0 m
Radar Cross Section
4.125 m², Large (>1 m²)

Expand to show TLE details & history
Last TLE update: 10 months ago

TLE from 10 months ago
0 OBJECT A
1 55248U 23007A   25032.34741356  .14915116  25233-5  43870-3 0  9994
2 55248  97.2648 115.4549 0008589 256.4706 219.4788 16.44648748114884
Epoch: 2025-02-01T08:20Z
TLE epoch observation values (Epoch: 2025-02-01T08:20:16.531Z)
Latitude
63.28129°
Longitude
53.17301°
Altitude
168.74 km
Speed
7.808 km/s
True Right ascension
20h 40m 09s
True Declination
63° 07' 50"
Sunlit
Object was in daylight at epoch
Visualization orbit readout
Latitude
Unknown
Longitude
Unknown
Altitude
Unknown
Speed
Unknown
Apparent Right ascension
Unknown
Apparent Declination
Unknown
Sunlit
N/A
Visualization observer readout
Local Sidereal Time
13:23:52
Azimuth
Unknown
Elevation
Unknown
Doppler factor
Unknown
Orbital elements
Apogee altitude
155.868 km
Perigee altitude
144.654 km
Semi-major axis
6,528.398 km
Eccentricity
0.00086
Inclination
97.2648°
RAAN
115.4549°
Arg. of periapsis
256.4706°
True anomaly
219.41628°
Mean anomaly
219.4788°
Eccentric anomaly
219.44753°
Mean motion
4.11465 °/min
Orbital period
87.49 mins
BSTAR
0.0004387
Loading maneuver chart data...
Computing Atmospheric mass density...
Loading historical data...
Loading historical data...
Loading historical data...
Loading historical data...
Loading historical data...
Loading historical data...
Loading historical data...

Documentation

Showing up to 5 results
|